Location: Foligno
(42.9600°N, 12.7050°E)
Time: 17:42:21
(UTC+02:00)

ISS - Pass Details

Date: 26 May 2020
Orbit: 417 x 420 km, 51.6° (Epoch: 26 May)

Event Time Altitude Azimuth Distance (km) Brightness Sun altitude
Rises 21:32:13 0° 299° (WNW) 2,365 2.0 -9.1°
Reaches altitude 10° 21:34:44 10° 318° (NW) 1,501 0.7 -9.4°
Maximum altitude 21:37:14 19° 6° (N) 1,068 -1.2 -9.8°
Drops below altitude 10° 21:39:45 10° 54° (NE) 1,501 -1.1 -10.1°
Enters shadow 21:42:11 - 73° (ENE) 2,332 -0.3 -10.4°
